This is the latest recevied weather packets stored in our database for station/object VE3VGJ. If no packets are shown the sender has not sent any weather packets the latest 10 day(s).
| Time | Temp. | Humidity | Pressure | Rain* | Wind** | Luminosity | Snow |
|---|---|---|---|---|---|---|---|
| 1777749199 | 6.11° C | 65% | 1014.1 hPa | 0 mm | - | 181 W/m² | - |
| 1777748896 | 6.11° C | 67% | 1014.5 hPa | 0 mm | - | 141 W/m² | - |
| 1777748593 | 6.11° C | 69% | 1014.4 hPa | 0 mm | - | 113 W/m² | - |
| 1777748289 | 6.11° C | 69% | 1014.5 hPa | 0 mm | - | 113 W/m² | - |
| 1777747985 | 6.11° C | 69% | 1014.3 hPa | 0 mm | - | 116 W/m² | - |
| 1777747682 | 6.11° C | 68% | 1014.5 hPa | 0 mm | - | 134 W/m² | - |
| 1777747377 | 6.67° C | 67% | 1014.3 hPa | 0 mm | - | 171 W/m² | - |
| 1777747074 | 7.22° C | 63% | 1014.2 hPa | 0 mm | - | 207 W/m² | - |
| 1777746770 | 8.33° C | 60% | 1014.1 hPa | 0 mm | - | 317 W/m² | - |
| 1777746465 | 7.78° C | 61% | 1014.1 hPa | 0 mm | - | 1146 W/m² | - |
| 1777746161 | 7.78° C | 60% | 1014.3 hPa | 0 mm | - | 1180 W/m² | - |
| 1777745858 | 9.44° C | 53% | 1014.3 hPa | 0 mm | - | 474 W/m² | - |
| 1777745558 | 8.89° C | 42% | 1014.1 hPa | 0 mm | - | 445 W/m² | - |
| 1777745254 | 8.89° C | 42% | 1014 hPa | 0 mm | - | 373 W/m² | - |
| 1777744952 | 8.33° C | 43% | 1014.3 hPa | 0 mm | - | 298 W/m² | - |
| 1777744651 | 8.33° C | 47% | 1014.1 hPa | 0 mm | - | 241 W/m² | - |
| 1777744346 | 8.89° C | 48% | 1014 hPa | 0 mm | - | 301 W/m² | - |
| 1777744044 | 8.33° C | 47% | 1014.2 hPa | 0 mm | - | 309 W/m² | - |
| 1777743741 | 8.89° C | 47% | 1014.2 hPa | 0 mm | - | 278 W/m² | - |
| 1777743438 | 8.89° C | 49% | 1014.1 hPa | 0 mm | - | 268 W/m² | - |
| 1777743135 | 8.89° C | 49% | 1013.9 hPa | 0 mm | - | 374 W/m² | - |
| 1777742833 | 9.44° C | 48% | 1014 hPa | 0 mm | - | 750 W/m² | - |
| 1777742529 | 8.89° C | 48% | 1014 hPa | 0 mm | - | 750 W/m² | - |
| 1777742225 | 8.89° C | 49% | 1013.7 hPa | 0 mm | - | 968 W/m² | - |
| 1777741922 | 8.33° C | 49% | 1013.9 hPa | 0 mm | - | 480 W/m² | - |
* Rain latest hour (hover to see other rain measurements)
** Current wind speed in m/s (hover to see current wind gust speed)